Location: Observatoire de l'Aigle
(47.0607°N, 71.3152°W)
Time: 21:36:01
(UTC-04:00)

Amateur Radio Satellites - All Passes

Search period start: 21 October 2014 21:06
Search period end: 22 October 2014 21:06
Location: Observatoire de l'Aigle, 47.0607°N, 71.3152°W

Satellite Date Start Highest point End Downlink Frequencies (MHz)
Time Altitude Azimuth
SO-50 21 Oct 21:19:16 21:23:43 35° 42° (NE) 21:28:11 436.795 FM
RS-15 21 Oct 21:20:32 21:28:23 23° 101° (E) 21:36:11 29.354 - 29.394 USB, Beacon 29.352 USB
FUNcube-1 21 Oct 21:21:57 21:25:59 31° 67° (ENE) 21:29:59 145.950 - 145.970 MHz USB
UOSAT-12 21 Oct 21:22:48 21:24:41 12° 18° (NNE) 21:26:33 437.025 FM, 437.400 FM
Oscar 11 21 Oct 21:32:47 21:37:07 84° 75° (ENE) 21:41:29 145.825 FM, Beacon 2401.500 USB
KITSAT 1 21 Oct 21:39:24 21:47:33 83° 54° (NE) 21:55:38 435.175 FM
ZACube-1 21 Oct 22:11:53 22:16:31 88° 258° (WSW) 22:21:06 437.345 MHz
UKube-1 21 Oct 22:25:03 22:28:41 26° 265° (W) 22:32:20 145.840 MHz, 145.915 MHz
FUNcube-1 21 Oct 22:58:12 23:02:19 32° 264° (W) 23:06:25 145.950 - 145.970 MHz USB
HO-68 21 Oct 22:58:49 23:01:46 13° 276° (W) 23:04:44 435.675 MHz FM
SO-50 21 Oct 22:59:49 23:04:22 42° 241° (WSW) 23:08:58 436.795 FM
UOSAT-12 21 Oct 23:01:54 23:06:15 34° 41° (NE) 23:10:32 437.025 FM, 437.400 FM
Oscar 11 21 Oct 23:12:57 23:13:54 11° 273° (W) 23:14:52 145.825 FM, Beacon 2401.500 USB
RS-15 21 Oct 23:28:03 23:39:02 84° 124° (SE) 23:50:01 29.354 - 29.394 USB, Beacon 29.352 USB
KITSAT 1 21 Oct 23:35:50 23:42:04 25° 255° (WSW) 23:48:16 435.175 FM
MaSat-1 21 Oct 23:36:38 23:38:50 14° 106° (ESE) 23:40:56 437.345 MHz
ZACube-1 21 Oct 23:52:38 23:53:33 11° 274° (W) 23:54:28 437.345 MHz
UOSAT-12 22 Oct 00:42:02 00:46:30 42° 241° (WSW) 00:50:53 437.025 FM, 437.400 FM
JAS-1B 22 Oct 00:55:36 00:59:01 14° 88° (E) 01:02:39 435.800 - 435.900 CW/SSB
MaSat-1 22 Oct 01:10:06 01:14:14 64° 301° (WNW) 01:17:58 437.345 MHz
Oscar 19 22 Oct 01:10:24 01:13:34 16° 89° (E) 01:16:42 437.125 CW, 437.150 USB
RS-15 22 Oct 01:42:28 01:52:38 41° 332° (NNW) 02:02:56 29.354 - 29.394 USB, Beacon 29.352 USB
Oscar 16 22 Oct 01:54:26 01:59:15 40° 98° (E) 02:04:03 437.025 USB, Beacon 2401.1428
Uribyol 2 22 Oct 02:08:27 02:12:40 24° 93° (E) 02:16:51 436.500 FM
ITAMSAT 1 22 Oct 02:13:33 02:17:52 25° 93° (E) 02:22:09 435.822 SSB
Gurwin Techsat 1B 22 Oct 02:15:06 02:18:01 15° 88° (E) 02:20:55 435.225 FM
AO-Echo 22 Oct 02:15:50 02:20:41 35° 96° (E) 02:25:32 ?
TMSAT-1 22 Oct 02:28:32 02:31:24 15° 87° (E) 02:34:14 436.925 FM
JAS-1B 22 Oct 02:44:02 02:50:24 79° 105° (ESE) 02:57:58 435.800 - 435.900 CW/SSB
Oscar 19 22 Oct 02:48:20 02:53:28 73° 287° (WNW) 02:58:33 437.125 CW, 437.150 USB
AO-27 22 Oct 02:57:46 03:02:59 62° 102° (ESE) 03:08:08 436.795 MHz FM
OPAL 22 Oct 03:01:44 03:03:38 12° 51° (NE) 03:05:32 ?
Oscar 16 22 Oct 03:34:03 03:38:29 31° 296° (WNW) 03:42:55 437.025 USB, Beacon 2401.1428
Sapphire 22 Oct 03:35:08 03:38:25 17° 105° (ESE) 03:41:42 437.095 MHz 1200 baud AX-25 AFSK
Uribyol 2 22 Oct 03:47:22 03:52:25 50° 291° (WNW) 03:57:25 436.500 FM
ITAMSAT 1 22 Oct 03:52:34 03:57:36 48° 292° (WNW) 04:02:36 435.822 SSB
Gurwin Techsat 1B 22 Oct 03:53:19 03:58:40 83° 286° (WNW) 04:03:59 435.225 FM
AO-Echo 22 Oct 03:54:37 03:59:26 37° 294° (WNW) 04:04:15 ?
PCSat 22 Oct 03:56:35 04:01:03 27° 109° (ESE) 04:05:32 145.825 MHz
RS-15 22 Oct 03:59:16 04:08:43 31° 6° (N) 04:18:22 29.354 - 29.394 USB, Beacon 29.352 USB
Uosat F 22 Oct 03:59:22 04:02:04 14° 88° (E) 04:04:46 435.120 FM
TMSAT-1 22 Oct 04:06:40 04:12:00 84° 286° (WNW) 04:17:19 436.925 FM
JAS-2 22 Oct 04:25:35 04:28:48 13° 81° (E) 04:32:03 435.800 - 435.900 CW/SSB, 435.910 FM
Oscar 19 22 Oct 04:29:56 04:31:55 12° 306° (NW) 04:33:54 437.125 CW, 437.150 USB
AO-7 22 Oct 04:30:19 04:38:04 41° 98° (E) 04:45:46 29.400 - 29.500 MHz
JAS-1B 22 Oct 04:35:56 04:40:36 22° 302° (WNW) 04:45:46 435.800 - 435.900 CW/SSB
OPAL 22 Oct 04:36:30 04:41:37 67° 69° (ENE) 04:46:42 ?
AO-27 22 Oct 04:38:07 04:42:04 22° 300° (WNW) 04:45:59 436.795 MHz FM
Sapphire 22 Oct 05:15:42 05:21:07 84° 303° (WNW) 05:26:36 437.095 MHz 1200 baud AX-25 AFSK
Gurwin Techsat 1B 22 Oct 05:35:00 05:37:50 15° 305° (NW) 05:40:39 435.225 FM
Uosat F 22 Oct 05:36:24 05:41:29 80° 286° (WNW) 05:46:32 435.120 FM
Hamsat 22 Oct 05:38:17 05:41:07 17° 91° (E) 05:43:56 145.90 MHz
PCSat 22 Oct 05:38:50 05:44:09 55° 309° (NW) 05:49:30 145.825 MHz
TMSAT-1 22 Oct 05:48:17 05:51:08 15° 305° (NW) 05:53:59 436.925 FM
JAS-2 22 Oct 06:07:36 06:15:12 62° 100° (E) 06:22:58 435.800 - 435.900 CW/SSB, 435.910 FM
RS-15 22 Oct 06:13:26 06:24:14 53° 38° (NE) 06:35:23 29.354 - 29.394 USB, Beacon 29.352 USB
STRAND 1 22 Oct 06:15:59 06:21:00 58° 70° (ENE) 06:26:04 ?
OPAL 22 Oct 06:17:28 06:20:57 18° 267° (W) 06:24:26 ?
AO-7 22 Oct 06:23:04 06:31:04 54° 298° (WNW) 06:39:04 29.400 - 29.500 MHz
Sapphire 22 Oct 07:01:21 07:05:23 21° 325° (NW) 07:09:26 437.095 MHz 1200 baud AX-25 AFSK
Hamsat 22 Oct 07:13:18 07:17:20 48° 288° (WNW) 07:21:22 145.90 MHz
Uosat F 22 Oct 07:17:06 07:19:28 13° 306° (NW) 07:21:50 435.120 FM
SO-67 22 Oct 07:25:25 07:28:32 31° 96° (E) 07:31:38 435.3500 MHz FM
PCSat 22 Oct 07:25:34 07:28:49 16° 332° (NNW) 07:32:04 145.825 MHz
JAS-2 22 Oct 07:53:08 07:59:50 36° 299° (WNW) 08:06:46 435.800 - 435.900 CW/SSB, 435.910 FM
STRAND 1 22 Oct 07:56:45 08:00:34 21° 269° (W) 08:04:25 ?
AO-7 22 Oct 08:17:32 08:22:05 16° 321° (NW) 08:26:38 29.400 - 29.500 MHz
Saudisat 1A 22 Oct 08:17:47 08:21:54 41° 120° (ESE) 08:26:04 436.775 MHz
RS-15 22 Oct 08:26:06 08:36:56 60° 244° (WSW) 08:48:13 29.354 - 29.394 USB, Beacon 29.352 USB
HO-68 22 Oct 08:30:59 08:36:06 20° 89° (E) 08:41:12 435.675 MHz FM
SO-67 22 Oct 08:58:52 09:01:20 19° 294° (WNW) 09:03:48 435.3500 MHz FM
MaSat-1 22 Oct 09:18:35 09:21:15 38° 56° (NE) 09:23:40 437.345 MHz
Oscar 11 22 Oct 09:19:14 09:21:04 12° 88° (E) 09:22:53 145.825 FM, Beacon 2401.500 USB
Saudisat 1A 22 Oct 09:57:39 10:01:35 31° 319° (NW) 10:05:33 436.775 MHz
ZACube-1 22 Oct 09:59:47 10:02:07 14° 89° (E) 10:04:26 437.345 MHz
UKube-1 22 Oct 10:09:19 10:13:29 42° 99° (E) 10:17:38 145.840 MHz, 145.915 MHz
HO-68 22 Oct 10:17:26 10:24:40 85° 289° (WNW) 10:31:52 435.675 MHz FM
Sapphire 22 Oct 10:35:41 10:37:18 11° 18° (NNE) 10:38:54 437.095 MHz 1200 baud AX-25 AFSK
RS-15 22 Oct 10:42:00 10:46:49 14° 266° (W) 10:51:43 29.354 - 29.394 USB, Beacon 29.352 USB
FUNcube-1 22 Oct 10:43:59 10:48:03 39° 97° (E) 10:52:00 145.950 - 145.970 MHz USB
Oscar 11 22 Oct 10:53:27 10:57:46 72° 286° (WNW) 11:02:03 145.825 FM, Beacon 2401.500 USB
PCSat 22 Oct 10:58:04 11:00:51 14° 25° (NNE) 11:03:37 145.825 MHz
ZACube-1 22 Oct 11:34:42 11:38:59 61° 287° (WNW) 11:43:08 437.345 MHz
Oscar 16 22 Oct 11:38:30 11:40:55 13° 55° (NE) 11:43:20 437.025 USB, Beacon 2401.1428
Saudisat 1A 22 Oct 11:41:39 11:42:32 11° 342° (NNW) 11:43:26 436.775 MHz
UKube-1 22 Oct 11:46:01 11:49:27 23° 297° (WNW) 11:52:52 145.840 MHz, 145.915 MHz
JAS-1B 22 Oct 11:46:40 11:49:50 15° 53° (NE) 11:52:57 435.800 - 435.900 CW/SSB
HO-68 22 Oct 12:06:19 12:11:26 22° 309° (NW) 12:16:33 435.675 MHz FM
KITSAT 1 22 Oct 12:11:21 12:18:33 38° 110° (ESE) 12:25:47 435.175 FM
Sapphire 22 Oct 12:17:43 12:22:33 31° 43° (NE) 12:27:22 437.095 MHz 1200 baud AX-25 AFSK
FUNcube-1 22 Oct 12:20:51 12:24:13 23° 296° (WNW) 12:27:32 145.950 - 145.970 MHz USB
Oscar 19 22 Oct 12:29:46 12:34:19 33° 65° (ENE) 12:38:53 437.125 CW, 437.150 USB
PCSat 22 Oct 12:40:29 12:45:42 45° 48° (NE) 12:50:54 145.825 MHz
AO-27 22 Oct 12:41:29 12:45:14 20° 59° (ENE) 12:49:00 436.795 MHz FM
Oscar 16 22 Oct 13:14:17 13:19:27 79° 73° (ENE) 13:24:38 437.025 USB, Beacon 2401.1428
ISS 22 Oct 13:15:47 13:17:49 15° 135° (SE) 13:19:52 145.800 FM
SO-50 22 Oct 13:17:40 13:21:37 31° 116° (ESE) 13:25:41 436.795 FM
Uribyol 2 22 Oct 13:29:01 13:34:02 50° 69° (ENE) 13:39:05 436.500 FM
AO-Echo 22 Oct 13:31:45 13:36:32 58° 71° (ENE) 13:41:30 ?
JAS-1B 22 Oct 13:33:45 13:39:46 88° 74° (ENE) 13:45:28 435.800 - 435.900 CW/SSB
ITAMSAT 1 22 Oct 13:34:19 13:39:21 52° 69° (ENE) 13:44:25 435.822 SSB
Gurwin Techsat 1B 22 Oct 13:38:32 13:43:11 32° 64° (ENE) 13:47:51 435.225 FM
AO-7 22 Oct 13:43:36 13:49:09 20° 44° (NE) 13:54:42 29.400 - 29.500 MHz
TMSAT-1 22 Oct 13:51:37 13:56:14 31° 64° (ENE) 14:00:51 436.925 FM
Sapphire 22 Oct 14:00:58 14:06:16 55° 243° (WSW) 14:11:33 437.095 MHz 1200 baud AX-25 AFSK
KITSAT 1 22 Oct 14:05:37 14:13:37 62° 312° (NW) 14:21:39 435.175 FM
Oscar 19 22 Oct 14:08:50 14:13:36 37° 263° (W) 14:18:23 437.125 CW, 437.150 USB
AO-27 22 Oct 14:19:04 14:24:15 67° 258° (WSW) 14:29:29 436.795 MHz FM
PCSat 22 Oct 14:24:10 14:29:00 34° 248° (WSW) 14:33:49 145.825 MHz
ISS 22 Oct 14:50:45 14:54:06 83° 153° (SSE) 14:57:27 145.800 FM
UOSAT-12 22 Oct 14:56:05 15:00:04 29° 115° (ESE) 15:04:07 437.025 FM, 437.400 FM
Oscar 16 22 Oct 14:56:29 14:59:25 15° 272° (W) 15:02:21 437.025 USB, Beacon 2401.1428
SO-50 22 Oct 14:57:45 15:02:03 41° 316° (NW) 15:06:31 436.795 FM
Oscar 10/S400 22 Oct 15:01:31 15:18:09 38° 156° (SSE) 15:49:37 145.825 - 145.975 CW/USB, Beacon 145.810 USB
Saudisat 1A 22 Oct 15:02:33 15:05:39 18° 31° (NNE) 15:08:45 436.775 MHz
Uribyol 2 22 Oct 15:09:31 15:13:46 25° 267° (W) 15:18:02 436.500 FM
AO-Echo 22 Oct 15:12:15 15:15:44 19° 270° (W) 15:19:19 ?
Uosat F 22 Oct 15:14:58 15:19:13 29° 63° (ENE) 15:23:30 435.120 FM
ITAMSAT 1 22 Oct 15:14:59 15:19:08 24° 267° (W) 15:23:19 435.822 SSB
Gurwin Techsat 1B 22 Oct 15:18:04 15:23:02 40° 263° (W) 15:28:03 435.225 FM
JAS-1B 22 Oct 15:28:33 15:31:18 13° 272° (W) 15:33:59 435.800 - 435.900 CW/SSB
TMSAT-1 22 Oct 15:31:02 15:36:01 41° 262° (W) 15:41:03 436.925 FM
AO-7 22 Oct 15:32:22 15:40:33 70° 66° (ENE) 15:48:47 29.400 - 29.500 MHz
KITSAT 1 22 Oct 16:04:21 16:10:47 25° 338° (NNW) 16:17:14 435.175 FM
JAS-2 22 Oct 16:23:43 16:29:05 35° 61° (ENE) 16:35:05 435.800 - 435.900 CW/SSB, 435.910 FM
ISS 22 Oct 16:27:52 16:31:01 38° 352° (N) 16:34:11 145.800 FM
Hamsat 22 Oct 16:34:43 16:37:45 20° 64° (ENE) 16:40:46 145.90 MHz
UOSAT-12 22 Oct 16:35:33 16:40:02 46° 315° (NW) 16:44:37 437.025 FM, 437.400 FM
Saudisat 1A 22 Oct 16:41:26 16:45:54 83° 52° (NE) 16:50:19 436.775 MHz
SO-50 22 Oct 16:41:38 16:43:53 13° 339° (NNW) 16:46:09 436.795 FM
OPAL 22 Oct 16:45:34 16:47:34 12° 89° (E) 16:49:33 ?
Uosat F 22 Oct 16:53:05 16:57:50 42° 262° (W) 17:02:38 435.120 FM
AO-7 22 Oct 17:26:58 17:33:58 30° 266° (W) 17:41:03 29.400 - 29.500 MHz
SO-67 22 Oct 18:01:34 18:03:58 18° 66° (ENE) 18:06:22 435.3500 MHz FM
KITSAT 1 22 Oct 18:03:44 18:09:27 20° 8° (N) 18:15:08 435.175 FM
ISS 22 Oct 18:04:56 18:08:10 44° 13° (NNE) 18:11:24 145.800 FM
JAS-2 22 Oct 18:08:19 18:13:58 46° 264° (W) 18:20:22 435.800 - 435.900 CW/SSB, 435.910 FM
Hamsat 22 Oct 18:09:20 18:13:24 46° 261° (W) 18:17:28 145.90 MHz
UOSAT-12 22 Oct 18:18:51 18:21:22 14° 337° (NNW) 18:23:54 437.025 FM, 437.400 FM
OPAL 22 Oct 18:22:09 18:27:10 90° 288° (WNW) 18:32:07 ?
Saudisat 1A 22 Oct 18:22:42 18:24:50 13° 250° (WSW) 18:26:58 436.775 MHz
STRAND 1 22 Oct 18:24:52 18:27:52 15° 89° (E) 18:30:50 ?
HO-68 22 Oct 19:03:26 19:08:52 24° 52° (NE) 19:14:19 435.675 MHz FM
SO-67 22 Oct 19:33:37 19:36:44 32° 263° (W) 19:39:53 435.3500 MHz FM
ISS 22 Oct 19:41:40 19:44:57 54° 212° (SSW) 19:48:13 145.800 FM
KITSAT 1 22 Oct 20:00:07 20:07:32 37° 36° (NE) 20:14:53 435.175 FM
STRAND 1 22 Oct 20:02:29 20:07:40 78° 287° (WNW) 20:12:48 ?
OPAL 22 Oct 20:02:35 20:05:21 15° 307° (NW) 20:08:07 ?
SO-50 22 Oct 20:05:51 20:09:09 18° 29° (NNE) 20:12:28 436.795 FM
Oscar 11 22 Oct 20:17:08 20:19:46 16° 61° (ENE) 20:22:24 145.825 FM, Beacon 2401.500 USB
RS-15 22 Oct 20:47:01 20:53:01 17° 96° (E) 20:58:58 29.354 - 29.394 USB, Beacon 29.352 USB
HO-68 22 Oct 20:48:37 20:55:47 85° 253° (WSW) 21:03:02 435.675 MHz FM
ZACube-1 22 Oct 20:58:47 21:02:05 20° 63° (ENE) 21:05:21 437.345 MHz
